User: anonymous   Login
Location: Newark
(25.3833°N, 97.4000°E)
Time: 14:44:23
(UTC+00:00)
Language:

First-Move - Orbit

View from above orbital plane
View from above orbital plane
View from above satellite
View from above satellite

Ground track
Ground track

The orbit data is extracted from the following two-line orbital elements,

1 39439U 13066Z   20048.92122328  .00000361  00000-0  50369-4 0  9994
2 39439  97.5709  54.0330 0064169 314.0095  45.5840 14.82035574337110
Epoch (UTC): 17 February 2020 22:06:33
Eccentricity: 0.0064169
inclination: 97.5709°
perigee height: 578 km
apogee height: 668 km
right ascension of ascending node: 54.0330°
argument of perigee: 314.0095°
revolutions per day: 14.82035574
mean anomaly at epoch: 45.5840°
orbit number at epoch: 33711

The dashed part of the orbit path shows where the satellite is in the earth's shadow,  

DLR